Location: Bucharest
(44.4268°N, 26.1025°E)
Time: 01:51:08
(UTC+03:00)

CUBESAT XI-V - Pass Details

Date: 03 July 2022
Orbit: 667 x 690 km, 98.1° (Epoch: 07 August)

Event Time Altitude Azimuth Distance (km) Brightness Sun altitude
Exits shadow 03:53:05 21° 232° (SW) 1,504 ? -14.0°
Maximum altitude 03:54:46 26° 265° (W) 1,322 ? -13.9°
Drops below altitude 10° 03:58:37 10° 322° (NW) 2,107 ? -13.5°
Sets 04:01:11 0° 335° (NNW) 3,024 ? -13.2°
